Voltar ao catálogo

STARLINK-30249

AtivoComunicaçõesVLEO
NORAD 57618·PAYLOAD·🇺🇸 United States

Lançado Aug 11, 2023 de Cape Canaveral Space Force Station

Loading…

Próximas Passagens (próximas 24 horas)

TLE

AtualizadoSource: CelesTrak SupGP

Época: Sep 15, 2026, 01:30 UTC

1 57618C 23119S   26258.06298611  .00031646  00000+0  11471-2 0  2582
2 57618  43.0018  91.8480 0001620 267.0160  18.9144 15.27537386    11

Acompanhe STARLINK-30249 em tempo real com AllMySat

Download on the App Store